Time,TemperatureF,DewpointF,PressureIn,WindDirection,WindDirectionDegrees,WindSpeedMPH,WindSpeedGustMPH,Humidity,HourlyPrecipIn,Conditions,Clouds,dailyrainin,SolarRadiationWatts/m^2,SoftwareType,DateUTC
2013-05-24 00:03:00,62.2,56.0,30.23,NNE,17,0.0,-999.0,79,-99.99,,,0.00,0,weatherlink.com 1.10,2013-05-24 05:03:00,
2013-05-24 00:18:00,61.6,55.0,30.22,NNE,26,1.0,-999.0,80,-99.99,,,0.00,0,weatherlink.com 1.10,2013-05-24 05:18:00,
2013-05-24 00:33:00,61.2,55.0,30.24,NNE,26,5.0,-999.0,81,-99.99,,,0.00,0,weatherlink.com 1.10,2013-05-24 05:33:00,
2013-05-24 00:48:00,60.8,55.0,30.23,NNE,24,0.0,-999.0,82,-99.99,,,0.00,0,weatherlink.com 1.10,2013-05-24 05:48:00,
2013-05-24 01:03:00,60.5,55.0,30.24,NNE,24,0.0,-999.0,82,-99.99,,,0.00,0,weatherlink.com 1.10,2013-05-24 06:03:00,
2013-05-24 01:18:00,60.3,55.0,30.24,NNE,24,0.0,-999.0,82,-99.99,,,0.00,0,weatherlink.com 1.10,2013-05-24 06:18:00,
2013-05-24 01:34:00,59.9,55.0,30.25,NNE,30,1.0,-999.0,83,-99.99,,,0.00,0,weatherlink.com 1.10,2013-05-24 06:34:00,
2013-05-24 01:49:00,59.5,54.0,30.25,NE,35,2.0,-999.0,83,-99.99,,,0.00,0,weatherlink.com 1.10,2013-05-24 06:49:00,
2013-05-24 02:04:00,59.1,54.0,30.26,NE,41,0.0,-999.0,84,-99.99,,,0.00,0,weatherlink.com 1.10,2013-05-24 07:04:00,
2013-05-24 02:19:00,58.8,54.0,30.27,NE,41,0.0,-999.0,85,-99.99,,,0.00,0,weatherlink.com 1.10,2013-05-24 07:19:00,
2013-05-24 02:34:00,58.5,54.0,30.27,NE,41,0.0,-999.0,85,-99.99,,,0.00,0,weatherlink.com 1.10,2013-05-24 07:34:00,
2013-05-24 02:49:00,58.4,54.0,30.27,NE,41,0.0,-999.0,85,-99.99,,,0.00,0,weatherlink.com 1.10,2013-05-24 07:49:00,
2013-05-24 03:04:00,58.1,54.0,30.27,NE,42,0.0,-999.0,85,-99.99,,,0.00,0,weatherlink.com 1.10,2013-05-24 08:04:00,
2013-05-24 03:19:00,57.9,54.0,30.27,NE,42,2.0,-999.0,85,-99.99,,,0.00,0,weatherlink.com 1.10,2013-05-24 08:19:00,
2013-05-24 03:34:00,57.7,54.0,30.28,NE,42,0.0,-999.0,86,-99.99,,,0.00,0,weatherlink.com 1.10,2013-05-24 08:34:00,
2013-05-24 03:49:00,57.5,53.0,30.28,NE,42,0.0,-999.0,86,-99.99,,,0.00,0,weatherlink.com 1.10,2013-05-24 08:49:00,
2013-05-24 04:04:00,57.3,54.0,30.29,NE,42,0.0,-999.0,87,-99.99,,,0.00,0,weatherlink.com 1.10,2013-05-24 09:04:00,
2013-05-24 04:19:00,56.9,53.0,30.29,NE,42,0.0,-999.0,87,-99.99,,,0.00,0,weatherlink.com 1.10,2013-05-24 09:19:00,
2013-05-24 04:34:00,56.7,53.0,30.29,NE,42,0.0,-999.0,88,-99.99,,,0.00,0,weatherlink.com 1.10,2013-05-24 09:34:00,
2013-05-24 04:49:00,56.5,53.0,30.29,NE,42,2.0,-999.0,88,-99.99,,,0.00,0,weatherlink.com 1.10,2013-05-24 09:49:00,
2013-05-24 05:04:00,56.3,53.0,30.30,NE,42,0.0,-999.0,88,-99.99,,,0.00,0,weatherlink.com 1.10,2013-05-24 10:04:00,
2013-05-24 05:19:00,56.0,53.0,30.30,NE,42,4.0,-999.0,88,-99.99,,,0.00,0,weatherlink.com 1.10,2013-05-24 10:19:00,
2013-05-24 05:34:00,55.7,53.0,30.31,NE,42,0.0,-999.0,89,-99.99,,,0.00,0,weatherlink.com 1.10,2013-05-24 10:34:00,
2013-05-24 05:49:00,55.4,52.0,30.32,North,355,0.0,-999.0,89,-99.99,,,0.00,0,weatherlink.com 1.10,2013-05-24 10:49:00,
2013-05-24 06:04:00,55.1,52.0,30.33,North,350,0.0,-999.0,89,-99.99,,,0.00,11,weatherlink.com 1.10,2013-05-24 11:04:00,
2013-05-24 06:20:00,55.1,52.0,30.33,North,350,1.0,-999.0,89,-99.99,,,0.00,32,weatherlink.com 1.10,2013-05-24 11:20:00,
2013-05-24 06:35:00,55.4,53.0,30.34,North,350,0.0,-999.0,90,-99.99,,,0.00,47,weatherlink.com 1.10,2013-05-24 11:35:00,
2013-05-24 06:50:00,56.3,53.0,30.35,North,350,0.0,-999.0,88,-99.99,,,0.00,116,weatherlink.com 1.10,2013-05-24 11:50:00,
2013-05-24 07:05:00,57.1,53.0,30.36,North,350,0.0,-999.0,85,-99.99,,,0.00,128,weatherlink.com 1.10,2013-05-24 12:05:00,
2013-05-24 07:19:00,57.8,53.0,30.36,NNE,31,3.0,-999.0,83,-99.99,,,0.00,202,weatherlink.com 1.10,2013-05-24 12:19:00,
2013-05-24 07:35:00,58.2,52.0,30.37,ENE,57,4.0,-999.0,81,-99.99,,,0.00,265,weatherlink.com 1.10,2013-05-24 12:35:00,
2013-05-24 07:50:00,58.6,52.0,30.37,ENE,78,4.0,-999.0,78,-99.99,,,0.00,279,weatherlink.com 1.10,2013-05-24 12:50:00,
2013-05-24 08:05:00,59.2,52.0,30.38,ENE,75,0.0,-999.0,76,-99.99,,,0.00,257,weatherlink.com 1.10,2013-05-24 13:05:00,
2013-05-24 08:20:00,59.6,51.0,30.38,East,84,0.0,-999.0,72,-99.99,,,0.00,362,weatherlink.com 1.10,2013-05-24 13:20:00,
2013-05-24 08:35:00,60.1,51.0,30.38,East,86,4.0,-999.0,72,-99.99,,,0.00,396,weatherlink.com 1.10,2013-05-24 13:35:00,
2013-05-24 08:51:00,60.9,51.0,30.38,ENE,73,0.0,-999.0,69,-99.99,,,0.00,478,weatherlink.com 1.10,2013-05-24 13:51:00,
2013-05-24 09:06:00,61.3,49.0,30.38,ESE,108,1.0,-999.0,64,-99.99,,,0.00,533,weatherlink.com 1.10,2013-05-24 14:06:00,
2013-05-24 09:21:00,62.0,49.0,30.38,ENE,71,3.0,-999.0,63,-99.99,,,0.00,555,weatherlink.com 1.10,2013-05-24 14:21:00,
2013-05-24 09:36:00,62.2,49.0,30.38,ENE,78,0.0,-999.0,62,-99.99,,,0.00,643,weatherlink.com 1.10,2013-05-24 14:36:00,
2013-05-24 09:51:00,63.4,50.0,30.38,ENE,78,0.0,-999.0,61,-99.99,,,0.00,640,weatherlink.com 1.10,2013-05-24 14:51:00,
2013-05-24 10:06:00,64.5,49.0,30.39,East,85,2.0,-999.0,58,-99.99,,,0.00,686,weatherlink.com 1.10,2013-05-24 15:06:00,
2013-05-24 10:21:00,64.4,50.0,30.39,ENE,71,1.0,-999.0,60,-99.99,,,0.00,733,weatherlink.com 1.10,2013-05-24 15:21:00,
2013-05-24 10:36:00,65.0,47.0,30.38,NE,54,7.0,-999.0,53,-99.99,,,0.00,721,weatherlink.com 1.10,2013-05-24 15:36:00,
2013-05-24 10:51:00,64.8,48.0,30.39,ENE,73,4.0,-999.0,55,-99.99,,,0.00,807,weatherlink.com 1.10,2013-05-24 15:51:00,
2013-05-24 11:06:00,65.6,47.0,30.39,ENE,71,0.0,-999.0,52,-99.99,,,0.00,842,weatherlink.com 1.10,2013-05-24 16:06:00,
2013-05-24 11:21:00,66.2,47.0,30.38,ENE,71,3.0,-999.0,51,-99.99,,,0.00,872,weatherlink.com 1.10,2013-05-24 16:21:00,
2013-05-24 11:36:00,66.6,47.0,30.39,NE,53,0.0,-999.0,50,-99.99,,,0.00,896,weatherlink.com 1.10,2013-05-24 16:36:00,
2013-05-24 11:51:00,67.4,47.0,30.38,ENE,59,8.0,-999.0,49,-99.99,,,0.00,916,weatherlink.com 1.10,2013-05-24 16:51:00,
2013-05-24 12:06:00,67.9,48.0,30.38,NE,54,5.0,-999.0,50,-99.99,,,0.00,937,weatherlink.com 1.10,2013-05-24 17:06:00,
2013-05-24 12:21:00,68.5,48.0,30.37,ENE,59,3.0,-999.0,49,-99.99,,,0.00,953,weatherlink.com 1.10,2013-05-24 17:21:00,
2013-05-24 12:36:00,69.6,48.0,30.36,ENE,70,4.0,-999.0,47,-99.99,,,0.00,967,weatherlink.com 1.10,2013-05-24 17:36:00,
2013-05-24 12:50:00,69.9,50.0,30.36,ENE,71,1.0,-999.0,49,-99.99,,,0.00,914,weatherlink.com 1.10,2013-05-24 17:50:00,
2013-05-24 13:06:00,69.9,49.0,30.36,ENE,68,0.0,-999.0,48,-99.99,,,0.00,977,weatherlink.com 1.10,2013-05-24 18:06:00,
2013-05-24 13:21:00,71.2,50.0,30.35,East,81,0.0,-999.0,47,-99.99,,,0.00,979,weatherlink.com 1.10,2013-05-24 18:21:00,
2013-05-24 13:37:00,72.1,50.0,30.34,East,89,0.0,-999.0,46,-99.99,,,0.00,969,weatherlink.com 1.10,2013-05-24 18:37:00,
2013-05-24 13:52:00,72.6,51.0,30.34,East,89,0.0,-999.0,46,-99.99,,,0.00,962,weatherlink.com 1.10,2013-05-24 18:52:00,
2013-05-24 14:07:00,72.7,51.0,30.33,ENE,75,0.0,-999.0,47,-99.99,,,0.00,953,weatherlink.com 1.10,2013-05-24 19:07:00,
2013-05-24 14:22:00,74.2,50.0,30.34,East,84,0.0,-999.0,42,-99.99,,,0.00,932,weatherlink.com 1.10,2013-05-24 19:22:00,
2013-05-24 14:37:00,74.3,50.0,30.33,East,84,0.0,-999.0,43,-99.99,,,0.00,914,weatherlink.com 1.10,2013-05-24 19:37:00,
2013-05-24 14:52:00,75.2,46.0,30.33,East,101,0.0,-999.0,36,-99.99,,,0.00,889,weatherlink.com 1.10,2013-05-24 19:52:00,
2013-05-24 15:07:00,75.9,50.0,30.33,East,100,0.0,-999.0,41,-99.99,,,0.00,867,weatherlink.com 1.10,2013-05-24 20:07:00,
2013-05-24 15:22:00,75.7,49.0,30.33,East,100,0.0,-999.0,39,-99.99,,,0.00,837,weatherlink.com 1.10,2013-05-24 20:22:00,
2013-05-24 15:37:00,75.7,48.0,30.31,East,96,0.0,-999.0,37,-99.99,,,0.00,784,weatherlink.com 1.10,2013-05-24 20:37:00,
2013-05-24 15:52:00,76.0,50.0,30.30,ENE,67,0.0,-999.0,40,-99.99,,,0.00,770,weatherlink.com 1.10,2013-05-24 20:52:00,
2013-05-24 16:07:00,76.4,50.0,30.30,ENE,76,0.0,-999.0,40,-99.99,,,0.00,728,weatherlink.com 1.10,2013-05-24 21:07:00,
2013-05-24 16:22:00,76.7,48.0,30.30,East,84,0.0,-999.0,37,-99.99,,,0.00,689,weatherlink.com 1.10,2013-05-24 21:22:00,
2013-05-24 16:37:00,76.6,50.0,30.30,East,84,0.0,-999.0,39,-99.99,,,0.00,645,weatherlink.com 1.10,2013-05-24 21:37:00,
2013-05-24 16:52:00,76.2,49.0,30.29,East,92,0.0,-999.0,38,-99.99,,,0.00,582,weatherlink.com 1.10,2013-05-24 21:52:00,
2013-05-24 17:07:00,76.2,47.0,30.29,East,86,0.0,-999.0,36,-99.99,,,0.00,503,weatherlink.com 1.10,2013-05-24 22:07:00,
2013-05-24 17:22:00,76.0,48.0,30.28,East,91,1.0,-999.0,37,-99.99,,,0.00,524,weatherlink.com 1.10,2013-05-24 22:22:00,
2013-05-24 17:37:00,75.5,48.0,30.28,East,84,0.0,-999.0,38,-99.99,,,0.00,476,weatherlink.com 1.10,2013-05-24 22:37:00,
2013-05-24 17:52:00,74.9,46.0,30.28,East,84,0.0,-999.0,36,-99.99,,,0.00,369,weatherlink.com 1.10,2013-05-24 22:52:00,
2013-05-24 18:07:00,74.0,45.0,30.26,East,95,0.0,-999.0,35,-99.99,,,0.00,88,weatherlink.com 1.10,2013-05-24 23:07:00,
2013-05-24 18:22:00,73.3,46.0,30.27,East,94,0.0,-999.0,38,-99.99,,,0.00,69,weatherlink.com 1.10,2013-05-24 23:22:00,
2013-05-24 18:37:00,72.6,47.0,30.26,East,100,0.0,-999.0,40,-99.99,,,0.00,77,weatherlink.com 1.10,2013-05-24 23:37:00,
2013-05-24 18:52:00,71.4,46.0,30.26,East,100,0.0,-999.0,40,-99.99,,,0.00,69,weatherlink.com 1.10,2013-05-24 23:52:00,
2013-05-24 19:07:00,70.6,45.0,30.27,ESE,103,0.0,-999.0,40,-99.99,,,0.00,51,weatherlink.com 1.10,2013-05-25 00:07:00,
2013-05-24 19:22:00,69.7,46.0,30.27,ESE,103,0.0,-999.0,43,-99.99,,,0.00,51,weatherlink.com 1.10,2013-05-25 00:22:00,
2013-05-24 19:37:00,68.8,46.0,30.27,ESE,103,0.0,-999.0,45,-99.99,,,0.00,39,weatherlink.com 1.10,2013-05-25 00:37:00,
2013-05-24 19:52:00,67.7,46.0,30.26,ENE,76,0.0,-999.0,46,-99.99,,,0.00,23,weatherlink.com 1.10,2013-05-25 00:52:00,
2013-05-24 20:07:00,66.7,47.0,30.27,ENE,77,0.0,-999.0,50,-99.99,,,0.00,7,weatherlink.com 1.10,2013-05-25 01:07:00,
2013-05-24 20:22:00,65.8,47.0,30.27,ENE,77,0.0,-999.0,51,-99.99,,,0.00,0,weatherlink.com 1.10,2013-05-25 01:22:00,
2013-05-24 20:37:00,65.2,47.0,30.27,ENE,77,0.0,-999.0,53,-99.99,,,0.00,0,weatherlink.com 1.10,2013-05-25 01:37:00,
2013-05-24 20:52:00,64.4,47.0,30.27,ENE,77,0.0,-999.0,54,-99.99,,,0.00,0,weatherlink.com 1.10,2013-05-25 01:52:00,
2013-05-24 21:07:00,63.8,48.0,30.28,ENE,77,0.0,-999.0,57,-99.99,,,0.00,0,weatherlink.com 1.10,2013-05-25 02:07:00,
2013-05-24 21:22:00,63.1,48.0,30.28,ENE,77,0.0,-999.0,58,-99.99,,,0.00,0,weatherlink.com 1.10,2013-05-25 02:22:00,
2013-05-24 21:37:00,62.7,47.0,30.29,ENE,77,0.0,-999.0,58,-99.99,,,0.00,0,weatherlink.com 1.10,2013-05-25 02:37:00,
2013-05-24 21:52:00,62.4,47.0,30.30,ENE,77,0.0,-999.0,58,-99.99,,,0.00,0,weatherlink.com 1.10,2013-05-25 02:52:00,
2013-05-24 22:07:00,62.0,47.0,30.30,ENE,77,0.0,-999.0,59,-99.99,,,0.00,0,weatherlink.com 1.10,2013-05-25 03:07:00,
2013-05-24 22:22:00,61.7,47.0,30.31,ENE,77,0.0,-999.0,59,-99.99,,,0.00,0,weatherlink.com 1.10,2013-05-25 03:22:00,
2013-05-24 22:37:00,61.4,46.0,30.31,ENE,78,0.0,-999.0,58,-99.99,,,0.00,0,weatherlink.com 1.10,2013-05-25 03:37:00,
2013-05-24 22:52:00,61.0,47.0,30.32,ENE,77,0.0,-999.0,60,-99.99,,,0.00,0,weatherlink.com 1.10,2013-05-25 03:52:00,
2013-05-24 23:07:00,60.3,47.0,30.32,ENE,78,0.0,-999.0,61,-99.99,,,0.00,0,weatherlink.com 1.10,2013-05-25 04:07:00,
2013-05-24 23:22:00,59.9,46.0,30.31,ENE,78,0.0,-999.0,61,-99.99,,,0.00,0,weatherlink.com 1.10,2013-05-25 04:22:00,
2013-05-24 23:37:00,59.5,47.0,30.32,ENE,77,0.0,-999.0,64,-99.99,,,0.00,0,weatherlink.com 1.10,2013-05-25 04:37:00,
2013-05-24 23:52:00,59.1,47.0,30.32,ENE,77,0.0,-999.0,65,-99.99,,,0.00,0,weatherlink.com 1.10,2013-05-25 04:52:00,